GFO 1 25157U 98007A 21019.11254505 .00000229 00000-0 29544-4 0 9991 2 25157 108.0377 173.4005 0170117 308.8106 49.7984 15.01611910226164 ORBCOMM FM03 1 25158U 98007B 21019.14850994 .00000023 00000-0 59754-4 0 9997 2 25158 107.9973 83.1054 0049186 169.8566 190.3575 14.29622187193835 ORBCOMM FM04 1 25159U 98007C 21019.09396334 .00000053 00000-0 70944-4 0 9992 2 25159 107.9956 85.0459 0044766 169.3473 190.8622 14.29903841193936 CELESTIS-02 & TAURUS R/B 1 25160U 98007D 21019.07172586 -.00000081 00000-0 21842-4 0 9998 2 25160 107.9696 311.4332 0064603 270.6973 99.5551 14.21556413189985 TAURUS DEB 1 25161U 98007E 21018.84647663 -.00000028 00000-0 42712-4 0 9996 2 25161 108.0052 20.5362 0061848 216.2506 208.2189 14.25483891191770